Time,TemperatureF,DewpointF,PressureIn,WindDirection,WindDirectionDegrees,WindSpeedMPH,WindSpeedGustMPH,Humidity,HourlyPrecipIn,Conditions,Clouds,dailyrainin,SoftwareType,DateUTC
2013-03-18 00:00:00,32.9,19.4,30.08,North,0,0.7,2.0,57,0.00,,,0.00,Weather8,2013-03-18 04:00:00,
2013-03-18 00:05:00,32.9,19.4,30.08,North,0,0.4,2.0,57,0.00,,,0.00,Weather8,2013-03-18 04:05:00,
2013-03-18 00:10:00,32.8,19.2,30.08,North,0,1.1,1.6,57,0.00,,,0.00,Weather8,2013-03-18 04:10:00,
2013-03-18 00:15:00,32.8,19.2,30.08,NNW,337,0.4,1.6,57,0.00,,,0.00,Weather8,2013-03-18 04:15:00,
2013-03-18 00:20:00,32.8,19.6,30.08,North,0,1.6,1.8,58,0.00,,,0.00,Weather8,2013-03-18 04:20:00,
2013-03-18 00:21:00,32.8,19.6,30.08,NNW,337,1.1,1.8,58,0.00,,,0.00,Weather8,2013-03-18 04:21:00,
2013-03-18 00:26:00,32.8,19.6,30.07,NNW,337,1.1,1.8,58,0.00,,,0.00,Weather8,2013-03-18 04:26:00,
2013-03-18 00:31:00,32.8,19.6,30.08,North,0,1.8,2.0,58,0.00,,,0.00,Weather8,2013-03-18 04:31:00,
2013-03-18 00:35:00,32.8,19.6,30.07,North,0,2.2,2.2,58,0.00,,,0.00,Weather8,2013-03-18 04:35:00,
2013-03-18 00:40:00,32.8,19.6,30.08,North,0,2.2,2.2,58,0.00,,,0.00,Weather8,2013-03-18 04:40:00,
2013-03-18 00:41:00,32.8,19.6,30.08,North,0,1.1,2.2,58,0.00,,,0.00,Weather8,2013-03-18 04:41:00,
2013-03-18 00:46:00,32.8,19.6,30.07,NNE,22,4.9,4.9,58,0.00,,,0.00,Weather8,2013-03-18 04:46:00,
2013-03-18 00:51:00,32.8,19.6,30.08,NE,45,0.7,4.9,58,0.00,,,0.00,Weather8,2013-03-18 04:51:00,
2013-03-18 00:56:00,32.8,19.2,30.07,North,0,2.5,4.9,57,0.00,,,0.00,Weather8,2013-03-18 04:56:00,
2013-03-18 01:01:00,32.8,19.2,30.08,North,0,1.6,3.1,57,0.00,,,0.00,Weather8,2013-03-18 05:01:00,
2013-03-18 01:06:00,32.8,19.2,30.07,NNE,22,2.9,3.4,57,0.00,,,0.00,Weather8,2013-03-18 05:06:00,
2013-03-18 01:11:00,32.8,19.2,30.07,North,0,2.0,4.3,57,0.00,,,0.00,Weather8,2013-03-18 05:11:00,
2013-03-18 01:16:00,32.8,19.2,30.07,North,0,2.5,4.3,57,0.00,,,0.00,Weather8,2013-03-18 05:16:00,
2013-03-18 01:21:00,32.8,18.7,30.07,North,0,2.7,4.3,56,0.00,,,0.00,Weather8,2013-03-18 05:21:00,
2013-03-18 01:27:00,32.8,18.7,30.07,NNE,22,1.3,3.4,56,0.00,,,0.00,Weather8,2013-03-18 05:27:00,
2013-03-18 01:32:00,32.8,18.7,30.07,NNE,22,1.8,3.1,56,0.00,,,0.00,Weather8,2013-03-18 05:32:00,
2013-03-18 01:37:00,32.8,18.7,30.07,NE,45,2.5,3.1,56,0.00,,,0.00,Weather8,2013-03-18 05:37:00,
2013-03-18 01:42:00,32.8,18.7,30.08,North,0,1.1,3.4,56,0.00,,,0.00,Weather8,2013-03-18 05:42:00,
2013-03-18 01:47:00,32.8,18.7,30.08,NNE,22,2.9,3.4,56,0.00,,,0.00,Weather8,2013-03-18 05:47:00,
2013-03-18 01:52:00,32.6,19.0,30.08,North,0,2.7,3.6,57,0.00,,,0.00,Weather8,2013-03-18 05:52:00,
2013-03-18 01:57:00,32.6,19.0,30.08,NE,45,1.8,3.6,57,0.00,,,0.00,Weather8,2013-03-18 05:57:00,
2013-03-18 02:02:00,32.6,18.5,30.08,NNE,22,2.7,3.4,56,0.00,,,0.00,Weather8,2013-03-18 06:02:00,
2013-03-18 02:07:00,32.6,19.0,30.08,NNE,22,1.6,3.4,57,0.00,,,0.00,Weather8,2013-03-18 06:07:00,
2013-03-18 02:12:00,32.4,18.8,30.08,North,0,2.5,3.6,57,0.00,,,0.00,Weather8,2013-03-18 06:12:00,
2013-03-18 02:17:00,32.4,18.8,30.08,NNE,22,1.1,3.6,57,0.00,,,0.00,Weather8,2013-03-18 06:17:00,
2013-03-18 02:22:00,32.4,18.8,30.08,North,0,2.5,2.7,57,0.00,,,0.00,Weather8,2013-03-18 06:22:00,
2013-03-18 02:27:00,32.2,18.6,30.09,NNE,22,1.6,2.5,57,0.00,,,0.00,Weather8,2013-03-18 06:27:00,
2013-03-18 02:32:00,32.2,19.1,30.09,NNE,22,1.1,2.5,58,0.00,,,0.00,Weather8,2013-03-18 06:32:00,
2013-03-18 02:37:00,32.2,19.1,30.09,North,0,0.7,2.0,58,0.00,,,0.00,Weather8,2013-03-18 06:37:00,
2013-03-18 02:42:00,32.2,19.1,30.10,North,0,1.1,2.0,58,0.00,,,0.00,Weather8,2013-03-18 06:42:00,
2013-03-18 02:47:00,32.0,18.9,30.09,North,0,1.1,2.0,58,0.00,,,0.00,Weather8,2013-03-18 06:47:00,
2013-03-18 02:52:00,32.0,18.9,30.10,North,0,0.4,1.8,58,0.00,,,0.00,Weather8,2013-03-18 06:52:00,
2013-03-18 02:57:00,32.0,18.9,30.10,North,0,1.1,1.6,58,0.00,,,0.00,Weather8,2013-03-18 06:57:00,
2013-03-18 03:02:00,31.9,18.7,30.10,North,0,0.7,1.6,58,0.00,,,0.00,Weather8,2013-03-18 07:02:00,
2013-03-18 03:07:00,31.9,18.7,30.10,North,0,0.4,1.1,58,0.00,,,0.00,Weather8,2013-03-18 07:07:00,
2013-03-18 03:12:00,31.7,19.0,30.10,North,0,1.1,1.6,59,0.00,,,0.00,Weather8,2013-03-18 07:12:00,
2013-03-18 03:17:00,31.7,19.0,30.11,NNE,22,0.4,1.6,59,0.00,,,0.00,Weather8,2013-03-18 07:17:00,
2013-03-18 03:22:00,31.7,19.0,30.11,North,0,0.4,1.6,59,0.00,,,0.00,Weather8,2013-03-18 07:22:00,
2013-03-18 03:27:00,31.7,19.0,30.10,NNE,22,1.1,2.0,59,0.00,,,0.00,Weather8,2013-03-18 07:27:00,
2013-03-18 03:32:00,31.5,18.8,30.10,NNE,22,0.0,2.0,59,0.00,,,0.00,Weather8,2013-03-18 07:32:00,
2013-03-18 03:37:00,31.5,18.8,30.10,ENE,67,0.4,2.0,59,0.00,,,0.00,Weather8,2013-03-18 07:37:00,
2013-03-18 03:42:00,31.5,19.3,30.11,NNE,22,2.0,2.0,60,0.00,,,0.00,Weather8,2013-03-18 07:42:00,
2013-03-18 03:47:00,31.5,19.3,30.11,NE,45,3.4,3.4,60,0.00,,,0.00,Weather8,2013-03-18 07:47:00,
2013-03-18 03:52:00,31.7,19.4,30.11,NNE,22,2.9,3.4,60,0.00,,,0.00,Weather8,2013-03-18 07:52:00,
2013-03-18 03:57:00,31.7,19.4,30.11,NNE,22,1.1,3.4,60,0.00,,,0.00,Weather8,2013-03-18 07:57:00,
2013-03-18 04:02:00,31.7,19.4,30.11,NE,45,3.4,3.4,60,0.00,,,0.00,Weather8,2013-03-18 08:02:00,
2013-03-18 04:07:00,31.9,19.6,30.11,NNE,22,2.5,3.4,60,0.00,,,0.00,Weather8,2013-03-18 08:07:00,
2013-03-18 04:12:00,32.0,19.8,30.12,NE,45,1.1,3.4,60,0.00,,,0.00,Weather8,2013-03-18 08:12:00,
2013-03-18 04:17:00,32.0,19.8,30.12,North,0,2.7,3.4,60,0.00,,,0.00,Weather8,2013-03-18 08:17:00,
2013-03-18 04:22:00,32.0,19.8,30.12,ENE,67,0.4,3.1,60,0.00,,,0.00,Weather8,2013-03-18 08:22:00,
2013-03-18 04:27:00,32.0,19.8,30.12,NE,45,3.1,4.0,60,0.00,,,0.00,Weather8,2013-03-18 08:27:00,
2013-03-18 04:32:00,32.2,19.5,30.12,NE,45,4.0,5.1,59,0.00,,,0.00,Weather8,2013-03-18 08:32:00,
2013-03-18 04:37:00,32.4,19.7,30.12,NNE,22,3.1,5.1,59,0.00,,,0.00,Weather8,2013-03-18 08:37:00,
2013-03-18 04:42:00,32.6,19.9,30.12,East,90,1.8,6.9,59,0.00,,,0.00,Weather8,2013-03-18 08:42:00,
2013-03-18 04:47:00,32.6,19.5,30.12,NNE,22,3.1,6.9,58,0.00,,,0.00,Weather8,2013-03-18 08:47:00,
2013-03-18 04:52:00,32.8,19.6,30.13,NE,45,4.0,5.6,58,0.00,,,0.00,Weather8,2013-03-18 08:52:00,
2013-03-18 04:57:00,32.8,18.7,30.13,NNE,22,5.6,5.8,56,0.00,,,0.00,Weather8,2013-03-18 08:57:00,
2013-03-18 05:02:00,32.8,18.7,30.12,ENE,67,5.4,6.3,56,0.00,,,0.00,Weather8,2013-03-18 09:02:00,
2013-03-18 05:07:00,32.8,18.7,30.13,NNE,22,3.4,6.3,56,0.00,,,0.00,Weather8,2013-03-18 09:07:00,
2013-03-18 05:12:00,32.8,18.7,30.13,ENE,67,2.7,5.6,56,0.00,,,0.00,Weather8,2013-03-18 09:12:00,
2013-03-18 05:17:00,32.8,18.7,30.12,ENE,67,5.1,5.1,56,0.00,,,0.00,Weather8,2013-03-18 09:17:00,
2013-03-18 05:22:00,32.6,18.5,30.13,ENE,67,2.9,5.4,56,0.00,,,0.00,Weather8,2013-03-18 09:22:00,
2013-03-18 05:27:00,32.6,18.5,30.13,ENE,67,3.8,5.4,56,0.00,,,0.00,Weather8,2013-03-18 09:27:00,
2013-03-18 05:32:00,32.6,18.5,30.13,ENE,67,4.9,5.1,56,0.00,,,0.00,Weather8,2013-03-18 09:32:00,
2013-03-18 05:37:00,32.4,18.4,30.13,East,90,2.9,5.1,56,0.00,,,0.00,Weather8,2013-03-18 09:37:00,
2013-03-18 05:42:00,32.4,18.8,30.13,NNE,22,7.2,8.3,57,0.00,,,0.00,Weather8,2013-03-18 09:42:00,
2013-03-18 05:47:00,32.4,18.8,30.13,NE,45,4.0,9.8,57,0.00,,,0.00,Weather8,2013-03-18 09:47:00,
2013-03-18 05:52:00,32.4,18.8,30.13,North,0,4.0,9.8,57,0.00,,,0.00,Weather8,2013-03-18 09:52:00,
2013-03-18 05:57:00,32.2,18.6,30.13,ENE,67,5.4,8.3,57,0.00,,,0.00,Weather8,2013-03-18 09:57:00,
2013-03-18 06:02:00,32.2,19.1,30.14,NNE,22,6.9,6.9,58,0.00,,,0.00,Weather8,2013-03-18 10:02:00,
2013-03-18 06:07:00,32.2,19.1,30.14,NNE,22,2.9,6.9,58,0.00,,,0.00,Weather8,2013-03-18 10:07:00,
2013-03-18 06:12:00,32.2,19.1,30.14,NNE,22,6.3,6.9,58,0.00,,,0.00,Weather8,2013-03-18 10:12:00,
2013-03-18 06:17:00,32.0,18.9,30.14,NNE,22,3.6,6.5,58,0.00,,,0.00,Weather8,2013-03-18 10:17:00,
2013-03-18 06:22:00,32.2,19.5,30.15,East,90,7.2,7.2,59,0.00,,,0.00,Weather8,2013-03-18 10:22:00,
2013-03-18 06:27:00,32.2,19.5,30.14,ENE,67,6.3,7.2,59,0.00,,,0.00,Weather8,2013-03-18 10:27:00,
2013-03-18 06:32:00,32.2,19.5,30.14,NNE,22,3.6,7.2,59,0.00,,,0.00,Weather8,2013-03-18 10:32:00,
2013-03-18 06:37:00,32.2,19.5,30.15,ENE,67,6.0,6.3,59,0.00,,,0.00,Weather8,2013-03-18 10:37:00,
2013-03-18 06:42:00,32.2,19.5,30.14,ENE,67,3.4,6.0,59,0.00,,,0.00,Weather8,2013-03-18 10:42:00,
2013-03-18 06:47:00,32.2,19.5,30.15,ENE,67,3.1,6.0,59,0.00,,,0.00,Weather8,2013-03-18 10:47:00,
2013-03-18 06:52:00,32.4,20.2,30.15,NE,45,5.1,7.6,60,0.00,,,0.00,Weather8,2013-03-18 10:52:00,
2013-03-18 06:57:00,32.4,20.2,30.15,ESE,112,3.6,7.6,60,0.00,,,0.00,Weather8,2013-03-18 10:57:00,
2013-03-18 07:02:00,32.4,20.2,30.15,East,90,5.4,5.4,60,0.00,,,0.00,Weather8,2013-03-18 11:02:00,
2013-03-18 07:07:00,32.6,20.6,30.15,NE,45,5.4,6.3,61,0.00,,,0.00,Weather8,2013-03-18 11:07:00,
2013-03-18 07:12:00,32.6,20.3,30.15,NE,45,3.1,6.3,60,0.00,,,0.00,Weather8,2013-03-18 11:12:00,
2013-03-18 07:17:00,32.8,20.4,30.15,ENE,67,5.4,5.8,60,0.00,,,0.00,Weather8,2013-03-18 11:17:00,
2013-03-18 07:22:00,32.8,20.4,30.15,ENE,67,5.4,6.7,60,0.00,,,0.00,Weather8,2013-03-18 11:22:00,
2013-03-18 07:27:00,32.8,20.4,30.15,NE,45,4.7,7.6,60,0.00,,,0.00,Weather8,2013-03-18 11:27:00,
2013-03-18 07:32:00,32.9,20.6,30.15,East,90,4.0,7.6,60,0.00,,,0.00,Weather8,2013-03-18 11:32:00,
2013-03-18 07:37:00,32.9,20.6,30.15,NNE,22,3.8,7.2,60,0.00,,,0.00,Weather8,2013-03-18 11:37:00,
2013-03-18 07:42:00,33.1,20.8,30.15,NNE,22,3.8,5.6,60,0.00,,,0.00,Weather8,2013-03-18 11:42:00,
2013-03-18 07:47:00,33.1,20.8,30.15,East,90,3.4,5.4,60,0.00,,,0.00,Weather8,2013-03-18 11:47:00,
2013-03-18 07:52:00,33.3,21.3,30.14,NNE,22,3.8,7.4,61,0.00,,,0.00,Weather8,2013-03-18 11:52:00,
2013-03-18 07:57:00,33.5,21.4,30.14,North,0,4.5,8.5,61,0.00,,,0.00,Weather8,2013-03-18 11:57:00,
2013-03-18 08:02:00,33.5,21.4,30.14,NE,45,5.6,8.5,61,0.00,,,0.00,Weather8,2013-03-18 12:02:00,
2013-03-18 08:07:00,33.5,21.4,30.14,ENE,67,4.0,8.5,61,0.00,,,0.00,Weather8,2013-03-18 12:07:00,
2013-03-18 08:12:00,33.7,22.0,30.15,ENE,67,2.5,5.6,62,0.00,,,0.00,Weather8,2013-03-18 12:12:00,
2013-03-18 08:17:00,33.8,22.1,30.15,East,90,2.0,5.1,62,0.00,,,0.00,Weather8,2013-03-18 12:17:00,
2013-03-18 08:22:00,33.8,22.1,30.15,East,90,5.4,6.5,62,0.00,,,0.00,Weather8,2013-03-18 12:22:00,
2013-03-18 08:27:00,34.2,22.5,30.15,East,90,4.7,6.5,62,0.00,,,0.00,Weather8,2013-03-18 12:27:00,
2013-03-18 08:32:00,34.2,22.5,30.15,SSE,157,3.6,6.5,62,0.00,,,0.00,Weather8,2013-03-18 12:32:00,
2013-03-18 08:37:00,34.4,22.7,30.15,ESE,112,2.5,4.7,62,0.00,,,0.00,Weather8,2013-03-18 12:37:00,
2013-03-18 08:42:00,34.4,22.7,30.15,East,90,4.7,5.6,62,0.00,,,0.00,Weather8,2013-03-18 12:42:00,
2013-03-18 08:47:00,34.7,23.0,30.15,ENE,67,3.4,5.6,62,0.00,,,0.00,Weather8,2013-03-18 12:47:00,
2013-03-18 08:52:00,34.9,23.2,30.15,ESE,112,2.2,7.6,62,0.00,,,0.00,Weather8,2013-03-18 12:52:00,
2013-03-18 08:57:00,34.9,23.2,30.15,NE,45,5.4,7.6,62,0.00,,,0.00,Weather8,2013-03-18 12:57:00,
2013-03-18 09:02:00,35.3,23.6,30.15,East,90,4.5,5.4,62,0.00,,,0.00,Weather8,2013-03-18 13:02:00,
2013-03-18 09:07:00,35.3,23.6,30.15,ESE,112,3.4,6.7,62,0.00,,,0.00,Weather8,2013-03-18 13:07:00,
2013-03-18 09:12:00,35.5,23.8,30.15,East,90,4.9,6.7,62,0.00,,,0.00,Weather8,2013-03-18 13:12:00,
2013-03-18 09:17:00,35.6,23.9,30.14,East,90,6.7,6.9,62,0.00,,,0.00,Weather8,2013-03-18 13:17:00,
2013-03-18 09:22:00,35.6,23.6,30.15,East,90,2.2,6.9,61,0.00,,,0.00,Weather8,2013-03-18 13:22:00,
2013-03-18 09:27:00,36.0,24.3,30.15,NE,45,4.3,6.9,62,0.00,,,0.00,Weather8,2013-03-18 13:27:00,
2013-03-18 09:32:00,36.0,24.3,30.15,ESE,112,2.9,6.3,62,0.00,,,0.00,Weather8,2013-03-18 13:32:00,
2013-03-18 09:37:00,36.4,24.6,30.15,ENE,67,3.4,6.3,62,0.00,,,0.00,Weather8,2013-03-18 13:37:00,
2013-03-18 09:42:00,36.5,24.8,30.15,ENE,67,3.4,6.3,62,0.00,,,0.00,Weather8,2013-03-18 13:42:00,
2013-03-18 09:47:00,36.9,24.4,30.15,East,90,2.7,7.8,60,0.00,,,0.00,Weather8,2013-03-18 13:47:00,
2013-03-18 09:52:00,36.9,24.4,30.15,SSE,157,3.8,7.8,60,0.00,,,0.00,Weather8,2013-03-18 13:52:00,
2013-03-18 09:57:00,37.1,24.5,30.15,ESE,112,2.0,6.7,60,0.00,,,0.00,Weather8,2013-03-18 13:57:00,
2013-03-18 10:02:00,37.1,24.5,30.15,SE,135,3.4,6.7,60,0.00,,,0.00,Weather8,2013-03-18 14:02:00,
2013-03-18 10:07:00,37.3,24.7,30.15,SE,135,1.8,6.7,60,0.00,,,0.00,Weather8,2013-03-18 14:07:00,
2013-03-18 10:12:00,37.3,24.2,30.15,ESE,112,3.4,5.1,59,0.00,,,0.00,Weather8,2013-03-18 14:12:00,
2013-03-18 10:17:00,37.3,24.7,30.15,ESE,112,2.7,4.9,60,0.00,,,0.00,Weather8,2013-03-18 14:17:00,
2013-03-18 10:22:00,37.4,24.8,30.15,ESE,112,4.3,4.9,60,0.00,,,0.00,Weather8,2013-03-18 14:22:00,
2013-03-18 10:27:00,37.8,25.2,30.15,SSE,157,2.0,4.3,60,0.00,,,0.00,Weather8,2013-03-18 14:27:00,
2013-03-18 10:32:00,38.0,24.9,30.15,South,180,4.3,4.3,59,0.00,,,0.00,Weather8,2013-03-18 14:32:00,
2013-03-18 10:37:00,38.3,25.2,30.14,ENE,67,2.7,4.7,59,0.00,,,0.00,Weather8,2013-03-18 14:37:00,
2013-03-18 10:42:00,38.5,25.4,30.13,ESE,112,2.9,4.7,59,0.00,,,0.00,Weather8,2013-03-18 14:42:00,
2013-03-18 10:48:00,38.7,25.6,30.13,ESE,112,4.5,6.3,59,0.00,,,0.00,Weather8,2013-03-18 14:48:00,
2013-03-18 10:53:00,38.9,25.8,30.13,NE,45,4.0,6.3,59,0.00,,,0.00,Weather8,2013-03-18 14:53:00,
2013-03-18 10:58:00,39.1,25.8,30.13,East,90,2.5,6.3,59,0.00,,,0.00,Weather8,2013-03-18 14:58:00,
2013-03-18 11:03:00,39.2,26.0,30.13,NE,45,6.5,6.5,59,0.00,,,0.00,Weather8,2013-03-18 15:03:00,
2013-03-18 11:08:00,39.6,26.8,30.12,ESE,112,4.3,6.5,60,0.00,,,0.00,Weather8,2013-03-18 15:08:00,
2013-03-18 11:13:00,39.6,27.2,30.12,ESE,112,6.0,6.5,61,0.00,,,0.00,Weather8,2013-03-18 15:13:00,
2013-03-18 11:18:00,39.8,27.7,30.12,ENE,67,3.4,6.3,62,0.00,,,0.00,Weather8,2013-03-18 15:18:00,
2013-03-18 11:23:00,40.0,27.9,30.12,ESE,112,4.7,6.3,62,0.00,,,0.00,Weather8,2013-03-18 15:23:00,
2013-03-18 11:28:00,40.1,26.9,30.12,ESE,112,2.2,6.0,59,0.00,,,0.00,Weather8,2013-03-18 15:28:00,
2013-03-18 11:33:00,40.7,27.5,30.11,ESE,112,4.3,6.0,59,0.00,,,0.00,Weather8,2013-03-18 15:33:00,
2013-03-18 11:38:00,40.7,27.0,30.11,East,90,2.0,6.0,58,0.00,,,0.00,Weather8,2013-03-18 15:38:00,
2013-03-18 11:43:00,41.0,27.4,30.11,ENE,67,4.5,5.4,58,0.00,,,0.00,Weather8,2013-03-18 15:43:00,
2013-03-18 11:48:00,41.2,27.6,30.11,NE,45,7.6,7.6,58,0.00,,,0.00,Weather8,2013-03-18 15:48:00,
2013-03-18 11:53:00,41.0,26.9,30.11,East,90,8.5,8.5,57,0.00,,,0.00,Weather8,2013-03-18 15:53:00,
2013-03-18 11:58:00,41.0,26.5,30.11,ESE,112,5.1,8.5,56,0.00,,,0.00,Weather8,2013-03-18 15:58:00,
2013-03-18 12:03:00,41.0,27.4,30.11,East,90,3.1,8.5,58,0.00,,,0.00,Weather8,2013-03-18 16:03:00,
2013-03-18 12:08:00,41.2,27.6,30.11,SSE,157,6.0,6.0,58,0.00,,,0.00,Weather8,2013-03-18 16:08:00,
2013-03-18 12:13:00,41.2,27.6,30.11,SE,135,2.2,6.0,58,0.00,,,0.00,Weather8,2013-03-18 16:13:00,
2013-03-18 12:18:00,41.4,28.2,30.10,ENE,67,3.8,6.0,59,0.00,,,0.00,Weather8,2013-03-18 16:18:00,
2013-03-18 12:23:00,41.4,28.6,30.10,SSE,157,4.7,10.3,60,0.00,,,0.00,Weather8,2013-03-18 16:23:00,
2013-03-18 12:28:00,41.4,29.0,30.10,ESE,112,6.7,10.3,61,0.00,,,0.00,Weather8,2013-03-18 16:28:00,
2013-03-18 12:33:00,41.2,28.8,30.09,SE,135,2.5,10.3,61,0.00,,,0.00,Weather8,2013-03-18 16:33:00,
2013-03-18 12:38:00,41.4,29.7,30.09,ESE,112,4.3,6.7,63,0.00,,,0.00,Weather8,2013-03-18 16:38:00,
2013-03-18 12:43:00,41.2,29.5,30.09,East,90,8.5,8.5,63,0.00,,,0.00,Weather8,2013-03-18 16:43:00,
2013-03-18 12:48:00,40.9,29.3,30.09,SSE,157,3.4,8.5,63,0.00,,,0.00,Weather8,2013-03-18 16:48:00,
2013-03-18 12:53:00,40.1,29.3,30.08,SE,135,7.2,8.5,65,0.00,,,0.00,Weather8,2013-03-18 16:53:00,
2013-03-18 12:58:00,40.0,29.1,30.08,East,90,4.9,8.5,65,0.00,,,0.00,Weather8,2013-03-18 16:58:00,
2013-03-18 13:03:00,40.0,29.4,30.08,East,90,5.4,8.5,66,0.00,,,0.00,Weather8,2013-03-18 17:03:00,
2013-03-18 13:08:00,40.0,29.8,30.07,SE,135,5.4,6.3,67,0.00,,,0.00,Weather8,2013-03-18 17:08:00,
2013-03-18 13:13:00,39.8,29.3,30.07,East,90,9.8,9.8,66,0.00,,,0.00,Weather8,2013-03-18 17:13:00,
2013-03-18 13:18:00,39.8,29.6,30.06,East,90,6.7,9.8,67,0.00,,,0.00,Weather8,2013-03-18 17:18:00,
2013-03-18 13:23:00,39.8,29.6,30.07,ENE,67,6.0,9.8,67,0.00,,,0.00,Weather8,2013-03-18 17:23:00,
2013-03-18 13:28:00,40.0,30.3,30.06,NE,45,4.7,6.9,68,0.00,,,0.00,Weather8,2013-03-18 17:28:00,
2013-03-18 13:33:00,39.8,30.1,30.07,SE,135,4.7,8.9,68,0.00,,,0.00,Weather8,2013-03-18 17:33:00,
2013-03-18 13:38:00,39.6,30.3,30.06,East,90,10.1,10.1,69,0.00,,,0.00,Weather8,2013-03-18 17:38:00,
2013-03-18 13:43:00,39.4,30.1,30.06,East,90,5.6,10.1,69,0.00,,,0.00,Weather8,2013-03-18 17:43:00,
2013-03-18 13:48:00,39.6,30.6,30.06,ESE,112,8.1,10.1,70,0.00,,,0.00,Weather8,2013-03-18 17:48:00,
2013-03-18 13:53:00,39.6,31.0,30.06,ENE,67,8.5,9.2,71,0.00,,,0.00,Weather8,2013-03-18 17:53:00,
2013-03-18 13:58:00,39.2,30.2,30.05,ESE,112,5.1,9.2,70,0.00,,,0.00,Weather8,2013-03-18 17:58:00,
2013-03-18 14:03:00,39.1,30.4,30.05,East,90,6.3,9.2,71,0.00,,,0.00,Weather8,2013-03-18 18:03:00,
2013-03-18 14:08:00,38.9,30.2,30.05,NE,45,6.5,8.5,71,0.00,,,0.00,Weather8,2013-03-18 18:08:00,
2013-03-18 14:13:00,38.7,30.1,30.05,SE,135,5.4,10.5,71,0.00,,,0.00,Weather8,2013-03-18 18:13:00,
2013-03-18 14:18:00,38.7,30.1,30.04,SE,135,7.4,10.5,71,0.00,,,0.00,Weather8,2013-03-18 18:18:00,
2013-03-18 14:23:00,38.5,30.2,30.04,East,90,7.2,10.5,72,0.00,,,0.00,Weather8,2013-03-18 18:23:00,
2013-03-18 14:28:00,38.5,30.2,30.03,NE,45,4.9,8.5,72,0.00,,,0.00,Weather8,2013-03-18 18:28:00,
2013-03-18 14:33:00,38.2,30.0,30.04,East,90,2.7,7.6,72,0.00,,,0.00,Weather8,2013-03-18 18:33:00,
2013-03-18 14:38:00,38.3,30.4,30.03,ENE,67,7.8,7.8,73,0.00,,,0.00,Weather8,2013-03-18 18:38:00,
2013-03-18 14:43:00,38.2,30.2,30.03,East,90,7.6,7.8,73,0.00,,,0.00,Weather8,2013-03-18 18:43:00,
2013-03-18 14:48:00,38.2,30.2,30.03,East,90,5.6,7.8,73,0.00,,,0.00,Weather8,2013-03-18 18:48:00,
2013-03-18 14:53:00,38.2,30.2,30.02,East,90,3.4,7.6,73,0.00,,,0.00,Weather8,2013-03-18 18:53:00,
2013-03-18 14:58:00,37.8,30.2,30.02,East,90,6.9,8.5,74,0.00,,,0.00,Weather8,2013-03-18 18:58:00,
2013-03-18 15:03:00,37.8,30.2,30.00,SE,135,2.2,8.5,74,0.00,,,0.00,Weather8,2013-03-18 19:03:00,
2013-03-18 15:08:00,38.0,30.8,30.00,ENE,67,6.3,7.8,75,0.00,,,0.00,Weather8,2013-03-18 19:08:00,
2013-03-18 15:13:00,38.0,30.8,30.00,ESE,112,8.7,8.7,75,0.00,,,0.00,Weather8,2013-03-18 19:13:00,
2013-03-18 15:18:00,38.2,31.0,30.00,ESE,112,4.3,9.2,75,0.00,,,0.00,Weather8,2013-03-18 19:18:00,
2013-03-18 15:23:00,38.2,31.0,30.00,ESE,112,5.4,9.2,75,0.00,,,0.00,Weather8,2013-03-18 19:23:00,
2013-03-18 15:28:00,38.2,31.2,30.00,NE,45,6.3,9.2,76,0.00,,,0.00,Weather8,2013-03-18 19:28:00,
2013-03-18 15:33:00,38.2,31.2,30.00,ESE,112,6.7,10.1,76,0.00,,,0.00,Weather8,2013-03-18 19:33:00,
2013-03-18 15:38:00,38.0,31.4,30.00,SE,135,4.7,10.1,77,0.00,,,0.00,Weather8,2013-03-18 19:38:00,
2013-03-18 15:43:00,37.8,31.2,30.00,ESE,112,6.3,10.1,77,0.00,,,0.00,Weather8,2013-03-18 19:43:00,
2013-03-18 15:48:00,37.8,30.9,30.00,SE,135,4.0,10.1,76,0.00,,,0.00,Weather8,2013-03-18 19:48:00,
2013-03-18 15:53:00,37.8,30.9,30.00,East,90,6.3,10.1,76,0.00,,,0.00,Weather8,2013-03-18 19:53:00,
2013-03-18 15:58:00,37.8,30.9,30.00,ESE,112,4.0,8.9,76,0.00,,,0.00,Weather8,2013-03-18 19:58:00,
2013-03-18 16:03:00,37.8,30.9,29.99,ENE,67,7.8,8.9,76,0.00,,,0.00,Weather8,2013-03-18 20:03:00,
2013-03-18 16:08:00,37.8,31.2,29.98,ESE,112,6.3,9.2,77,0.00,,,0.00,Weather8,2013-03-18 20:08:00,
2013-03-18 16:13:00,37.8,31.2,29.98,ESE,112,5.1,9.2,77,0.00,,,0.00,Weather8,2013-03-18 20:13:00,
2013-03-18 16:18:00,37.8,31.2,29.98,NE,45,6.0,7.8,77,0.00,,,0.00,Weather8,2013-03-18 20:18:00,
2013-03-18 16:23:00,37.8,31.6,29.97,ENE,67,6.5,6.9,78,0.00,,,0.00,Weather8,2013-03-18 20:23:00,
2013-03-18 16:28:00,37.8,31.6,29.97,East,90,3.4,9.4,78,0.00,,,0.00,Weather8,2013-03-18 20:28:00,
2013-03-18 16:33:00,37.8,31.6,29.97,East,90,4.7,9.4,78,0.00,,,0.00,Weather8,2013-03-18 20:33:00,
2013-03-18 16:38:00,37.8,31.6,29.96,ESE,112,6.9,9.2,78,0.00,,,0.00,Weather8,2013-03-18 20:38:00,
2013-03-18 16:43:00,37.8,31.9,29.97,ESE,112,6.3,8.7,79,0.00,,,0.00,Weather8,2013-03-18 20:43:00,
2013-03-18 16:48:00,37.8,32.2,29.97,SSW,202,6.9,8.7,80,0.00,,,0.00,Weather8,2013-03-18 20:48:00,
2013-03-18 16:53:00,37.6,32.0,29.97,ENE,67,7.4,8.5,80,0.00,,,0.00,Weather8,2013-03-18 20:53:00,
2013-03-18 16:58:00,37.6,32.3,29.96,ESE,112,10.3,10.3,81,0.00,,,0.00,Weather8,2013-03-18 20:58:00,
2013-03-18 17:03:00,37.4,32.4,29.97,SE,135,6.3,10.3,82,0.00,,,0.00,Weather8,2013-03-18 21:03:00,
2013-03-18 17:08:00,37.3,32.6,29.96,NE,45,8.7,10.3,83,0.00,,,0.00,Weather8,2013-03-18 21:08:00,
2013-03-18 17:13:00,37.3,32.9,29.96,East,90,7.2,9.6,84,0.00,,,0.00,Weather8,2013-03-18 21:13:00,
2013-03-18 17:18:00,37.1,32.7,29.97,ESE,112,4.7,10.5,84,0.00,,,0.00,Weather8,2013-03-18 21:18:00,
2013-03-18 17:23:00,37.1,32.7,29.97,East,90,5.4,10.5,84,0.00,,,0.00,Weather8,2013-03-18 21:23:00,
2013-03-18 17:28:00,37.1,32.7,29.97,ESE,112,9.6,9.6,84,0.00,,,0.00,Weather8,2013-03-18 21:28:00,
2013-03-18 17:33:00,37.1,32.9,29.95,ESE,112,7.6,9.6,85,0.00,,,0.00,Weather8,2013-03-18 21:33:00,
2013-03-18 17:38:00,37.1,32.7,29.95,ESE,112,4.5,10.5,84,0.00,,,0.00,Weather8,2013-03-18 21:38:00,
2013-03-18 17:43:00,37.1,32.9,29.95,ESE,112,6.9,10.5,85,0.00,,,0.00,Weather8,2013-03-18 21:43:00,
2013-03-18 17:48:00,37.1,32.7,29.95,SE,135,9.2,10.5,84,0.00,,,0.00,Weather8,2013-03-18 21:48:00,
2013-03-18 17:53:00,37.1,32.9,29.94,ESE,112,6.5,9.2,85,0.00,,,0.00,Weather8,2013-03-18 21:53:00,
2013-03-18 17:58:00,37.1,32.9,29.94,SSE,157,6.0,9.2,85,0.00,,,0.00,Weather8,2013-03-18 21:58:00,
2013-03-18 18:03:00,37.1,33.2,29.94,East,90,8.3,11.4,86,0.00,,,0.00,Weather8,2013-03-18 22:03:00,
2013-03-18 18:08:00,37.1,33.2,29.94,ENE,67,8.5,11.4,86,0.00,,,0.00,Weather8,2013-03-18 22:08:00,
2013-03-18 18:13:00,37.1,33.2,29.94,ENE,67,3.8,8.5,86,0.00,,,0.00,Weather8,2013-03-18 22:13:00,
2013-03-18 18:18:00,37.1,33.2,29.94,ESE,112,9.2,9.2,86,0.00,,,0.00,Weather8,2013-03-18 22:18:00,
2013-03-18 18:23:00,37.1,33.5,29.94,ENE,67,6.9,9.2,87,0.00,,,0.00,Weather8,2013-03-18 22:23:00,
2013-03-18 18:28:00,37.1,33.5,29.92,East,90,4.7,9.2,87,0.00,,,0.00,Weather8,2013-03-18 22:28:00,
2013-03-18 18:33:00,37.1,33.9,29.91,ESE,112,7.4,10.3,88,0.00,,,0.00,Weather8,2013-03-18 22:33:00,
2013-03-18 18:38:00,37.1,33.5,29.89,ESE,112,7.6,10.3,87,0.00,,,0.00,Weather8,2013-03-18 22:38:00,
2013-03-18 18:43:00,37.3,34.0,29.89,East,90,6.9,8.5,88,0.00,,,0.00,Weather8,2013-03-18 22:43:00,
2013-03-18 18:48:00,37.3,34.0,29.89,ESE,112,5.8,8.5,88,0.00,,,0.00,Weather8,2013-03-18 22:48:00,
2013-03-18 18:53:00,37.3,34.0,29.89,East,90,8.5,8.5,88,0.00,,,0.00,Weather8,2013-03-18 22:53:00,
2013-03-18 18:58:00,37.3,34.0,29.90,ENE,67,6.3,8.5,88,0.00,,,0.00,Weather8,2013-03-18 22:58:00,
2013-03-18 19:03:00,37.3,34.0,29.89,SE,135,4.7,10.5,88,0.00,,,0.00,Weather8,2013-03-18 23:03:00,
2013-03-18 19:08:00,37.3,34.3,29.89,SSE,157,3.8,10.5,89,0.00,,,0.00,Weather8,2013-03-18 23:08:00,
2013-03-18 19:13:00,37.4,34.7,29.89,ESE,112,3.4,9.2,90,0.00,,,0.00,Weather8,2013-03-18 23:13:00,
2013-03-18 19:18:00,37.4,34.7,29.89,ENE,67,5.1,8.1,90,0.00,,,0.00,Weather8,2013-03-18 23:18:00,
2013-03-18 19:23:00,37.6,34.9,29.88,ESE,112,10.5,10.5,90,0.00,,,0.00,Weather8,2013-03-18 23:23:00,
2013-03-18 19:28:00,37.8,35.1,29.88,SSE,157,5.6,10.5,90,0.00,,,0.00,Weather8,2013-03-18 23:28:00,
2013-03-18 19:33:00,37.8,35.1,29.87,East,90,5.6,10.5,90,0.00,,,0.00,Weather8,2013-03-18 23:33:00,
2013-03-18 19:38:00,37.8,35.1,29.87,SE,135,7.2,7.6,90,0.00,,,0.00,Weather8,2013-03-18 23:38:00,
2013-03-18 19:43:00,37.8,35.1,29.87,North,0,6.7,9.8,90,0.00,,,0.00,Weather8,2013-03-18 23:43:00,
2013-03-18 19:48:00,37.8,35.1,29.87,East,90,3.8,9.8,90,0.00,,,0.00,Weather8,2013-03-18 23:48:00,
2013-03-18 19:53:00,37.8,35.1,29.86,SE,135,7.6,9.8,90,0.00,,,0.00,Weather8,2013-03-18 23:53:00,
2013-03-18 19:58:00,38.0,35.3,29.86,ESE,112,8.5,8.5,90,0.00,,,0.00,Weather8,2013-03-18 23:58:00,
2013-03-18 20:03:00,38.2,35.5,29.86,ESE,112,3.6,8.5,90,0.00,,,0.00,Weather8,2013-03-19 00:03:00,
2013-03-18 20:09:00,38.5,35.8,29.86,East,90,6.9,6.9,90,0.00,,,0.00,Weather8,2013-03-19 00:09:00,
2013-03-18 20:14:00,38.5,35.8,29.86,SE,135,5.1,6.9,90,0.00,,,0.00,Weather8,2013-03-19 00:14:00,
2013-03-18 20:19:00,38.7,36.3,29.86,East,90,7.6,8.7,91,0.00,,,0.00,Weather8,2013-03-19 00:19:00,
2013-03-18 20:24:00,38.9,36.5,29.86,East,90,7.8,8.7,91,0.00,,,0.00,Weather8,2013-03-19 00:24:00,
2013-03-18 20:29:00,38.9,36.5,29.86,SSE,157,3.8,7.8,91,0.00,,,0.00,Weather8,2013-03-19 00:29:00,
2013-03-18 20:34:00,39.1,36.6,29.86,SSE,157,4.3,7.8,91,0.00,,,0.00,Weather8,2013-03-19 00:34:00,
2013-03-18 20:39:00,39.2,36.8,29.86,ENE,67,4.7,8.5,91,0.00,,,0.00,Weather8,2013-03-19 00:39:00,
2013-03-18 20:44:00,39.2,36.8,29.86,East,90,8.1,8.5,91,0.00,,,0.00,Weather8,2013-03-19 00:44:00,
2013-03-18 20:49:00,39.2,36.8,29.85,East,90,6.9,8.5,91,0.00,,,0.00,Weather8,2013-03-19 00:49:00,
2013-03-18 20:54:00,39.1,36.6,29.85,ENE,67,5.1,8.7,91,0.00,,,0.00,Weather8,2013-03-19 00:54:00,
2013-03-18 20:59:00,39.1,36.6,29.84,East,90,3.8,10.5,91,0.00,,,0.00,Weather8,2013-03-19 00:59:00,
2013-03-18 21:04:00,38.9,36.5,29.84,East,90,6.0,10.5,91,0.00,,,0.00,Weather8,2013-03-19 01:04:00,
2013-03-18 21:09:00,39.1,36.6,29.84,ENE,67,4.7,10.5,91,0.00,,,0.00,Weather8,2013-03-19 01:09:00,
2013-03-18 21:14:00,39.1,36.6,29.84,ENE,67,4.9,7.8,91,0.00,,,0.00,Weather8,2013-03-19 01:14:00,
2013-03-18 21:19:00,39.1,36.6,29.83,NE,45,3.6,7.6,91,0.00,,,0.00,Weather8,2013-03-19 01:19:00,
2013-03-18 21:24:00,39.1,36.6,29.83,ENE,67,5.8,6.5,91,0.00,,,0.00,Weather8,2013-03-19 01:24:00,
2013-03-18 21:29:00,39.2,36.8,29.82,East,90,7.2,7.2,91,0.00,,,0.00,Weather8,2013-03-19 01:29:00,
2013-03-18 21:34:00,39.2,36.8,29.82,East,90,5.8,7.6,91,0.00,,,0.00,Weather8,2013-03-19 01:34:00,
2013-03-18 21:39:00,39.2,36.8,29.82,ENE,67,4.9,7.8,91,0.00,,,0.00,Weather8,2013-03-19 01:39:00,
2013-03-18 21:44:00,39.2,36.8,29.82,East,90,8.5,8.5,91,0.00,,,0.00,Weather8,2013-03-19 01:44:00,
2013-03-18 21:49:00,39.2,36.8,29.82,SE,135,4.7,8.5,91,0.00,,,0.00,Weather8,2013-03-19 01:49:00,
2013-03-18 21:54:00,39.2,36.8,29.81,NE,45,4.5,10.3,91,0.00,,,0.00,Weather8,2013-03-19 01:54:00,
2013-03-18 21:59:00,39.2,36.8,29.81,ESE,112,6.3,10.3,91,0.00,,,0.00,Weather8,2013-03-19 01:59:00,
2013-03-18 22:04:00,39.2,36.8,29.80,East,90,8.5,8.5,91,0.00,,,0.00,Weather8,2013-03-19 02:04:00,
2013-03-18 22:09:00,39.2,36.8,29.80,East,90,6.9,8.7,91,0.00,,,0.00,Weather8,2013-03-19 02:09:00,
2013-03-18 22:14:00,39.2,36.8,29.80,ENE,67,8.7,8.7,91,0.00,,,0.00,Weather8,2013-03-19 02:14:00,
2013-03-18 22:19:00,39.4,37.0,29.79,ENE,67,6.3,8.7,91,0.00,,,0.00,Weather8,2013-03-19 02:19:00,
2013-03-18 22:24:00,39.4,37.0,29.79,ENE,67,4.0,8.7,91,0.00,,,0.00,Weather8,2013-03-19 02:24:00,
2013-03-18 22:29:00,39.6,37.2,29.79,East,90,5.4,8.7,91,0.00,,,0.00,Weather8,2013-03-19 02:29:00,
2013-03-18 22:34:00,39.6,37.2,29.79,ESE,112,5.8,8.7,91,0.00,,,0.00,Weather8,2013-03-19 02:34:00,
2013-03-18 22:39:00,39.6,37.2,29.78,NE,45,5.1,8.7,91,0.00,,,0.00,Weather8,2013-03-19 02:39:00,
2013-03-18 22:44:00,39.8,37.4,29.78,ENE,67,5.8,8.3,91,0.00,,,0.00,Weather8,2013-03-19 02:44:00,
2013-03-18 22:49:00,39.8,37.4,29.78,East,90,3.8,8.3,91,0.00,,,0.00,Weather8,2013-03-19 02:49:00,
2013-03-18 22:54:00,39.8,37.4,29.78,NE,45,7.4,8.3,91,0.00,,,0.00,Weather8,2013-03-19 02:54:00,
2013-03-18 22:59:00,40.0,37.5,29.77,SE,135,6.3,9.6,91,0.00,,,0.00,Weather8,2013-03-19 02:59:00,
2013-03-18 23:04:00,40.0,37.5,29.77,ENE,67,4.5,9.6,91,0.00,,,0.00,Weather8,2013-03-19 03:04:00,
2013-03-18 23:09:00,40.0,37.5,29.77,NE,45,4.7,9.6,91,0.00,,,0.00,Weather8,2013-03-19 03:09:00,
2013-03-18 23:14:00,40.1,37.7,29.76,NNE,22,6.0,9.4,91,0.00,,,0.00,Weather8,2013-03-19 03:14:00,
2013-03-18 23:19:00,40.1,37.7,29.76,East,90,4.7,9.4,91,0.00,,,0.00,Weather8,2013-03-19 03:19:00,
2013-03-18 23:24:00,40.3,37.9,29.77,NNE,22,3.1,9.4,91,0.00,,,0.00,Weather8,2013-03-19 03:24:00,
2013-03-18 23:29:00,40.3,37.9,29.76,ENE,67,5.4,8.1,91,0.00,,,0.00,Weather8,2013-03-19 03:29:00,
2013-03-18 23:34:00,40.5,38.1,29.75,ENE,67,8.7,8.7,91,0.00,,,0.00,Weather8,2013-03-19 03:34:00,
2013-03-18 23:39:00,40.5,38.1,29.75,NNE,22,7.2,8.7,91,0.00,,,0.00,Weather8,2013-03-19 03:39:00,
2013-03-18 23:44:00,40.7,38.3,29.74,NE,45,6.5,8.7,91,0.00,,,0.00,Weather8,2013-03-19 03:44:00,
2013-03-18 23:49:00,40.7,38.3,29.73,ENE,67,4.9,9.2,91,0.00,,,0.00,Weather8,2013-03-19 03:49:00,
2013-03-18 23:54:00,40.7,38.3,29.72,ENE,67,7.6,9.2,91,0.00,,,0.00,Weather8,2013-03-19 03:54:00,
2013-03-18 23:59:00,40.9,38.4,29.71,NE,45,8.9,11.4,91,0.00,,,0.00,Weather8,2013-03-19 03:59:00,